Location: Freistadt
(48.5112°N, 14.5013°E)
Time: 13:09:47
(UTC+01:00)

FENGYUN 1C DEB - Visible Passes

Search period start: 01 December 2023 00:00
Search period end: 11 December 2023 00:00
Orbit: 836 x 973 km, 99.5° (Epoch: 30 November)

Date Brightness Start Highest point End Pass type
(mag) Time Alt. Az. Time Alt. Az. Time Alt. Az.
01 Dec ? 04:07:11 10° ESE 04:11:42 28° ENE 04:16:09 10° N visible
01 Dec ? 05:47:54 10° S 05:53:10 52° WSW 05:58:29 10° NNW visible
01 Dec ? 18:15:40 25° NNE 18:18:54 55° ESE 18:24:34 10° S visible
01 Dec ? 19:58:49 25° NNW 20:00:20 29° WNW 20:05:10 10° WSW visible
02 Dec ? 04:11:00 10° ESE 04:15:36 30° ENE 04:20:00 11° N visible
02 Dec ? 05:51:55 10° S 05:57:08 48° W 06:02:24 10° NNW visible
02 Dec ? 18:19:44 26° NNE 18:22:51 59° ESE 18:28:35 10° S visible
02 Dec ? 20:02:52 24° NW 20:04:15 27° WNW 20:08:59 10° WSW visible
03 Dec ? 04:14:49 10° ESE 04:19:31 31° ENE 04:23:50 12° N visible
03 Dec ? 05:55:56 10° S 06:01:06 45° W 06:06:19 10° NNW visible
03 Dec ? 18:23:46 28° NNE 18:26:49 63° ESE 18:32:37 10° S visible
03 Dec ? 20:06:55 24° NW 20:08:10 26° WNW 20:12:49 10° WSW visible
04 Dec ? 04:18:39 10° SE 04:23:25 33° ENE 04:27:42 13° N visible
04 Dec ? 05:59:57 10° S 06:05:04 42° W 06:10:13 10° NNW visible
04 Dec ? 16:46:40 10° ENE 16:48:04 11° E 16:49:28 10° E visible
04 Dec ? 18:27:49 29° NNE 18:30:47 67° ESE 18:36:37 10° S visible
04 Dec ? 20:10:57 23° NW 20:12:05 24° WNW 20:16:37 10° WSW visible
05 Dec ? 04:22:28 10° SE 04:27:20 35° ENE 04:31:34 13° N visible
05 Dec ? 06:03:59 10° SSW 06:09:01 39° W 06:14:07 10° NNW visible
05 Dec ? 16:50:02 10° ENE 16:52:05 12° E 16:54:09 10° ESE visible
05 Dec ? 18:31:50 31° NNE 18:34:44 72° ESE 18:40:36 10° S visible
05 Dec ? 20:14:59 22° NW 20:15:59 23° WNW 20:20:25 10° WSW visible
06 Dec ? 04:26:18 10° SE 04:31:15 37° ENE 04:35:26 14° N visible
06 Dec ? 06:08:02 10° SSW 06:12:59 37° W 06:18:01 10° NNW visible
06 Dec ? 16:53:34 10° ENE 16:56:06 13° E 16:58:39 10° ESE visible
06 Dec ? 18:35:52 32° NNE 18:38:42 76° ESE 18:44:36 10° SSW visible
06 Dec ? 20:19:01 21° NW 20:19:53 22° WNW 20:24:13 10° WSW visible
07 Dec ? 04:30:09 10° SE 04:35:09 40° ENE 04:39:19 15° N visible
07 Dec ? 06:12:04 10° SSW 06:16:57 34° W 06:21:55 10° NNW visible
07 Dec ? 16:57:12 10° ENE 17:00:06 14° E 17:03:03 10° ESE visible
07 Dec ? 18:39:53 33° NNE 18:42:39 81° ESE 18:48:34 10° SSW visible
07 Dec ? 20:23:01 20° NW 20:23:47 21° NW 20:27:59 10° WSW visible
08 Dec ? 04:34:00 10° SE 04:39:03 42° ENE 04:43:13 15° N visible
08 Dec ? 06:16:08 10° SSW 06:20:56 32° W 06:25:48 10° NNW visible
08 Dec ? 17:00:52 10° NE 17:04:07 15° E 17:07:24 10° ESE visible
08 Dec ? 18:43:53 34° NNE 18:46:36 86° ESE 18:52:33 10° SSW visible
08 Dec ? 20:27:02 20° NW 20:27:41 20° NW 20:31:45 10° W visible
09 Dec ? 04:37:51 10° SE 04:42:59 45° ENE 04:47:07 16° N visible
09 Dec ? 06:20:11 10° SSW 06:24:54 30° W 06:29:41 10° NW visible
09 Dec ? 17:04:45 10° NE 17:08:08 16° E 17:11:42 10° SE visible
09 Dec ? 18:47:53 35° NNE 18:50:33 89° WNW 18:56:31 10° SSW visible
09 Dec ? 20:31:01 19° NW 20:31:35 19° NW 20:35:31 10° W visible
10 Dec ? 04:41:43 10° SE 04:46:53 48° ENE 04:51:01 16° N visible
10 Dec ? 06:24:16 10° SSW 06:28:52 28° W 06:33:33 10° NW visible
10 Dec ? 17:08:44 11° NE 17:12:08 18° E 17:15:58 10° SE visible
10 Dec ? 18:51:52 35° NNE 18:54:30 85° WNW 19:00:28 10° SSW visible
10 Dec ? 20:35:01 18° NW 20:35:28 18° NW 20:39:16 10° W visible
